Station DELD1 - 8551762 - Delaware City, DE Image indicating link to RSS feed of recent meteorological observations for station DELD1


Conditions at DELD1 as of
(7:18 am EDT)
1118 GMT on 04/21/2024:
     

Click on the graph icon in the table below to see a time series plot of the last five days of that observation.

5-day plot - Wind Direction Wind Direction (WDIR):NNW ( 330 deg true )
5-day plot - Wind Speed Wind Speed (WSPD): 5.1 kts
5-day plot - Wind Gust Wind Gust (GST): 7.0 kts
5-day plot - Atmospheric Pressure Atmospheric Pressure (PRES):30.08 in
5-day plot - Air Temperature Air Temperature (ATMP): 46.6 °F
5-day plot - Wind Chill Wind Chill (CHILL): 43.7 °F
5-day plot - Wind Speed at 10 Meters Wind Speed at 10 meters (WSPD10M): 5.8 kts
5-day plot - Wind Speed at 20 Meters Wind Speed at 20 meters (WSPD20M): 5.8 kts
5-day plot -  Wind Speed, Wind Gust and Atmospheric Pressure Combined plot of Wind Speed, Gust, and Air Pressure
NOS Water Level Observation Network Water Level
Previous observations
TIME
(EDT)
5-day plot - Wind Direction
WDIR
 
5-day plot - Wind Speed
WSPD
kts
5-day plot - Wind Gust
GST
kts
5-day plot - Wave Height
WVHT
ft
5-day plot - Dominant Wave Period
DPD
sec
5-day plot - Average Wave Period
APD
sec
5-day plot - Mean Wave Direction
MWD
 
5-day plot - Atmospheric Pressure
PRES
in
5-day plot - Pressure Tendency
PTDY
in
5-day plot - Air Temperature
ATMP
°F
5-day plot - Water Temperature
WTMP
°F
5-day plot - Dew Point
DEWP
°F
5-day plot - Salinity
SAL
psu
5-day plot - Visibility
VIS
nmi
5-day plot - Tide (above MLLW)
TIDE
ft
2024-04-21 07:12 amNNW 5.1 8.0----30.08- 46.4-----
2024-04-21 07:06 amNNW 5.1 8.0----30.08- 46.4-----
2024-04-21 07:00 amNNW 5.1 8.0----30.08- 46.2-----
2024-04-21 06:54 amNNW 5.1 8.9----30.08- 46.2-----
2024-04-21 06:48 amNNW 5.1 8.0----30.08- 46.2-----
2024-04-21 06:42 amNNW 5.1 8.0----30.07- 46.0-----
2024-04-21 06:36 amNNW 5.1 8.0----30.08- 46.2-----
2024-04-21 06:30 amNNW 4.1 8.0----30.07-------
2024-04-21 06:24 amNNW 5.1 8.9----30.08-------
2024-04-21 06:18 amNNW 6.0 8.9----30.08- 46.4-----
2024-04-21 06:12 amNNW 5.1 8.9----30.07- 46.2-----
2024-04-21 06:06 amNNW 5.1 8.0----30.07- 46.2-----
2024-04-21 06:00 amNNW 4.1 7.0----30.07+0.02 46.4-----
2024-04-21 05:54 am NW 5.1 7.0----30.07- 46.6-----
2024-04-21 05:48 amNNW 4.1 7.0----30.07- 46.4-----
2024-04-21 05:42 amNNW 4.1 9.9----30.07- 46.4-----
2024-04-21 05:36 amNNW 5.1 8.0----30.06- 46.6-----
2024-04-21 05:30 amNNW 5.1 6.0----30.06- 46.8-----
2024-04-21 05:24 amNNW 4.1 8.0----30.06- 46.8-----
2024-04-21 05:18 amNNW 5.1 7.0----30.06- 46.8-----
2024-04-21 05:12 am NW 4.1 7.0----30.07- 46.9-----
2024-04-21 05:06 am NW 4.1 9.9----30.06- 46.9-----
2024-04-21 05:00 amNNW 4.1 8.0----30.06+0.01 46.9-----
2024-04-21 04:54 amNNW 4.1 8.0----30.06- 46.9-----
2024-04-21 04:48 am NW 4.1 6.0----30.06- 47.1-----
2024-04-21 04:42 amNNW 4.1 7.0----30.07- 47.3-----
2024-04-21 04:36 amWNW 1.9 6.0----30.06- 47.3-----
2024-04-21 04:30 amWNW 2.9 6.0----30.06- 47.3-----
2024-04-21 04:24 amWSW 1.0 5.1----30.06- 46.9-----
2024-04-21 04:18 am NE 2.9 6.0----30.06-------
2024-04-21 04:12 amENE 4.1 7.0----30.06-------
2024-04-21 04:06 amENE 5.1 8.9----30.06-------
2024-04-21 04:00 amENE 5.1 9.9------ 47.1-----
2024-04-21 03:54 amENE 4.1 8.0------ 47.3-----
2024-04-21 03:48 amENE 2.9 7.0----30.05- 47.3-----
2024-04-21 03:42 amENE 4.1 8.9----30.05- 47.7-----
2024-04-21 03:36 amENE 4.1 9.9----30.05- 47.7-----
2024-04-21 03:30 amENE 5.1 8.9----30.05- 47.7-----
2024-04-21 03:24 amNNE 1.9 6.0----30.05- 47.8-----
2024-04-21 03:18 am NE 2.9 6.0----30.05- 48.0-----
2024-04-21 03:12 amENE 4.1 8.9----30.05- 48.0-----
2024-04-21 03:06 amENE 4.1 8.0----30.05- 48.2-----
2024-04-21 03:00 amENE 2.9 8.0----30.05+0.04 48.4-----
2024-04-21 02:54 amENE 2.9 6.0----30.04- 48.6-----
2024-04-21 02:48 amENE 4.1 9.9----30.04- 48.7-----
2024-04-21 02:42 amENE 5.1 9.9----30.05- 48.9-----
2024-04-21 02:36 am- 0.0 4.1----30.05- 49.5-----
2024-04-21 02:30 am W 1.9 5.1----30.05- 49.5-----
2024-04-21 02:24 am NE 1.9 6.0----30.05- 50.0-----
2024-04-21 02:18 am W 1.9 7.0----30.05- 50.2-----
2024-04-21 02:12 am NW 2.9 6.0----30.05- 50.2-----
2024-04-21 02:06 amWNW 1.9 5.1----30.06- 50.0-----
2024-04-21 02:00 am NE 2.9 6.0----30.05+0.06 50.2-----
2024-04-21 01:54 amWSW 2.9 6.0----30.05- 50.2-----
2024-04-21 01:48 amWSW 2.9 7.0----30.05- 50.4-----
2024-04-21 01:42 am W 2.9 8.0----30.05- 50.7-----
2024-04-21 01:36 amWSW 4.1 6.0----30.05- 50.7-----
2024-04-21 01:30 amWSW 1.9 5.1----30.04- 50.9-----
2024-04-21 01:24 am NE 1.9 6.0----30.04- 51.4-----
2024-04-21 01:18 am W 2.9 6.0----30.04- 51.6-----
2024-04-21 01:12 am W 4.1 8.0----30.04- 51.8-----
2024-04-21 01:06 am W 2.9 7.0----30.04- 52.0-----
2024-04-21 01:00 amWSW 2.9 7.0----30.04+0.08 52.3-----
2024-04-21 12:54 am S 1.9 8.0----30.03- 52.7-----
2024-04-21 12:48 amENE 1.9 6.0----30.03- 53.1-----
2024-04-21 12:42 amENE 6.0 9.9----30.04- 53.4-----
2024-04-21 12:36 amNNE 1.9 6.0----30.03- 54.0-----
2024-04-21 12:30 am NE 2.9 9.9----30.03- 55.0-----
2024-04-21 12:24 am NW 4.1 8.0----30.02- 55.8-----
2024-04-21 12:18 am NW 6.0 8.9----30.02- 55.9-----
2024-04-21 12:12 am NW 5.1 8.9----30.01- 55.9-----
2024-04-21 12:06 amNNW 7.0 8.9----30.01- 56.1-----
2024-04-21 12:00 amNNW 7.0 14.0----30.01+0.08 56.3-----
2024-04-20 11:54 pmNNW 8.0 11.1----30.01- 56.1-----
2024-04-20 11:48 pmNNW 8.9 11.1----30.01- 56.3-----
2024-04-20 11:42 pmNNW 8.9 13.0----30.00- 56.5-----
2024-04-20 11:36 pmNNW 11.1 14.0----30.00- 56.7-----
2024-04-20 11:30 pmNNW 11.1 14.0----29.99- 56.8-----
2024-04-20 11:24 pmNNW 11.1 15.0----29.99- 57.0-----
2024-04-20 11:18 pmNNW 9.9 14.0----29.99- 57.4-----
2024-04-20 11:12 pmNNW 11.1 15.0----30.00- 57.6-----
2024-04-20 11:06 pmNNW 11.1 15.9----29.99- 57.7-----
2024-04-20 11:00 pmNNW 14.0 18.1----29.99+0.08 58.1-----
2024-04-20 10:54 pmNNW 13.0 15.9----29.98- 58.3-----
2024-04-20 10:48 pmNNW 13.0 15.9----29.98- 58.6-----
2024-04-20 10:42 pmNNW 13.0 15.0----29.98- 58.8-----
2024-04-20 10:36 pmNNW 14.0 15.9----29.98- 59.2-----
2024-04-20 10:30 pmNNW 13.0 15.9----29.97- 59.4-----
2024-04-20 10:24 pmNNW 12.0 14.0----29.97- 59.5-----
2024-04-20 10:18 pmNNW 11.1 15.9----29.96- 60.1-----
2024-04-20 10:12 pmNNW 12.0 17.1----29.96- 60.3-----
2024-04-20 10:06 pmNNW 12.0 14.0----29.96- 60.4-----
2024-04-20 10:00 pmNNW 11.1 15.0----29.96+0.09 60.4-----
2024-04-20 09:54 pmNNW 11.1 15.9----29.95- 60.6-----
2024-04-20 09:48 pm-------29.95-------
2024-04-20 09:42 pmNNW 8.0 12.0----29.95- 61.0-----
2024-04-20 09:36 pmNNW 8.9 12.0----29.94- 61.0-----
2024-04-20 09:30 pmNNW 9.9 15.0----29.94- 60.8-----
2024-04-20 09:24 pmNNW 13.0 15.9----29.93- 61.5-----
2024-04-20 09:18 pmNNW 13.0 15.9----29.93- 61.7-----
2024-04-20 09:12 pmNNW 12.0 15.9----29.93- 62.1-----
2024-04-20 09:06 pmNNW 12.0 15.0----29.93- 62.1-----
2024-04-20 09:00 pmNNW 12.0 15.9----29.93+0.07 62.2-----
2024-04-20 08:54 pmNNW 8.9 13.0----29.93- 62.1-----
2024-04-20 08:48 pmNNW 11.1 13.0----29.93- 62.6-----
2024-04-20 08:42 pm NW 8.9 12.0----29.92- 62.8-----
2024-04-20 08:36 pm NW 7.0 11.1----29.92- 63.0-----
2024-04-20 08:30 pm NW 7.0 11.1----29.92- 63.0-----
2024-04-20 08:24 pm NW 6.0 8.9----29.92- 63.1-----
2024-04-20 08:18 pm NW 7.0 11.1------ 63.7-----
2024-04-20 08:12 pm NW 8.0 14.0------ 63.9-----
2024-04-20 08:06 pm NW 13.0 20.0------ 64.6-----
2024-04-20 08:00 pm NW 11.1 15.9----29.91+0.04 64.2-----
2024-04-20 07:54 pm NW 8.9 15.9----29.90- 64.6-----
2024-04-20 07:48 pm NW 13.0 18.1----29.89-------
2024-04-20 07:42 pmNNW 9.9 14.0----29.89-------
2024-04-20 07:36 pmNNW 12.0 15.9----29.89-------
2024-04-20 07:30 pmNNW 11.1 17.1----29.88- 65.1-----
2024-04-20 07:24 pm NW 12.0 18.1----29.88- 66.2-----
2024-04-20 07:00 pm NW 12.0 15.9----29.87+0.00 67.8-----
2024-04-20 06:54 pm NW 12.0 18.1----29.86- 67.6-----
2024-04-20 06:48 pm NW 14.0 20.0----29.86- 68.2-----
2024-04-20 06:42 pm NW 11.1 20.0----29.86- 68.4-----
2024-04-20 06:36 pmWNW 11.1 18.1----29.86- 68.7-----
2024-04-20 06:30 pm NW 12.0 17.1----29.85- 68.9-----
2024-04-20 06:24 pm NW 13.0 19.0----29.86- 68.7-----
2024-04-20 06:18 pmWNW 7.0 12.0----29.86- 69.1-----
2024-04-20 06:12 pmWNW 8.0 18.1----29.86- 69.1-----
2024-04-20 06:06 pm NW 11.1 18.1----29.86- 68.7-----
2024-04-20 06:00 pm-------29.86-0.03 68.9-----
2024-04-20 05:54 pm-------29.86- 68.9-----
2024-04-20 05:48 pmWNW 11.1 18.1----29.86- 69.1-----
2024-04-20 05:42 pmWNW 12.0 21.0----29.86- 68.7-----
2024-04-20 05:36 pmWNW 15.0 25.1----29.86- 68.7-----
2024-04-20 05:30 pmWNW 12.0 19.0----29.86- 69.1-----
2024-04-20 05:24 pmWNW 9.9 21.0----29.86- 68.9-----
2024-04-20 05:18 pm NW 14.0 17.1----29.86- 68.7-----
2024-04-20 05:12 pmWNW 15.0 21.0----29.86- 68.7-----
2024-04-20 05:06 pm NW 14.0 19.0----29.86- 68.7-----
2024-04-20 05:00 pm NW 13.0 19.0----29.86-0.06 69.1-----
2024-04-20 04:54 pm NW 14.0 21.0----29.86- 68.7-----
2024-04-20 04:48 pm NW 17.1 24.1----29.86-------
2024-04-20 04:42 pmWNW 13.0 24.1----29.86-------
2024-04-20 04:36 pmWNW 8.0 17.1----29.86-------
2024-04-20 04:30 pmWNW 11.1 18.1----29.86- 68.7-----
2024-04-20 04:24 pmWNW 8.9 21.0----29.86- 68.9-----
2024-04-20 04:18 pmWNW 13.0 19.0------ 68.5-----
2024-04-20 04:12 pmWSW 4.1 12.0------ 68.7-----
2024-04-20 04:06 pm W 5.1 8.9------ 68.4-----
2024-04-20 04:00 pm-------29.86-0.07 68.0-----
2024-04-20 03:54 pm-------29.87- 68.4-----
2024-04-20 03:48 pmWSW 9.9 17.1----29.87- 67.8-----
2024-04-20 03:42 pm W 6.0 13.0----29.87- 68.4-----
2024-04-20 03:36 pm W 5.1 11.1----29.87- 67.8-----
2024-04-20 03:30 pmWNW 8.0 12.0----29.88- 67.8-----
2024-04-20 03:24 pm W 8.0 15.0----29.88- 67.3-----
2024-04-20 03:18 pmWSW 8.0 13.0----29.88- 66.4-----
2024-04-20 03:12 pm W 5.1 11.1----29.88- 66.9-----
2024-04-20 03:06 pm W 4.1 11.1----29.89- 65.7-----
2024-04-20 03:00 pm W 5.1 9.9----29.89-0.08------
2024-04-20 02:54 pm W 6.0 8.9----29.89-------
2024-04-20 02:48 pm S 2.9 5.1----29.90- 63.9-----
2024-04-20 02:42 pmSSE 4.1 6.0----29.90- 63.1-----
2024-04-20 02:36 pmESE 7.0 8.0----29.90- 61.3-----
2024-04-20 02:30 pm E 8.0 12.0------ 61.2-----
2024-04-20 02:24 pmESE 8.0 9.9------ 60.1-----
2024-04-20 02:18 pm E 5.1 8.0----29.91- 60.8-----
2024-04-20 02:12 pm E 7.0 8.0----29.91- 61.7-----
2024-04-20 02:06 pmESE 4.1 6.0----29.91- 60.8-----
2024-04-20 02:00 pmESE 5.1 6.0----29.92-0.07 60.6-----
2024-04-20 01:54 pm SE 2.9 6.0----29.92- 62.6-----
2024-04-20 01:48 pm E 5.1 8.9----29.92- 60.3-----
2024-04-20 01:42 pmESE 8.0 9.9----29.92- 60.1-----
2024-04-20 01:36 pmESE 8.9 11.1----29.93- 59.4-----
2024-04-20 01:30 pmESE 8.0 12.0----29.93- 59.2-----
2024-04-20 01:24 pmESE 9.9 12.0----29.93- 58.6-----
2024-04-20 01:18 pm SE 8.0 9.9----29.93- 58.8-----
2024-04-20 01:12 pm SE 8.9 11.1----29.93- 58.5-----
2024-04-20 01:06 pm SE 8.0 11.1----29.93- 58.8-----
2024-04-20 01:00 pm SE 7.0 8.9----29.94-0.06 59.0-----
2024-04-20 12:54 pm SE 7.0 8.9----29.94- 58.8-----
2024-04-20 12:48 pmESE 4.1 5.1----29.95- 58.6-----
2024-04-20 12:42 pmESE 4.1 7.0----29.95- 59.9-----
2024-04-20 12:36 pm W 1.0 4.1----29.95- 60.8-----
2024-04-20 12:30 pmWNW 1.0 2.9----29.95- 60.6-----
2024-04-20 12:24 pm N 1.0 6.0----29.95- 60.8-----
2024-04-20 12:18 pmNNW 4.1 8.0----29.95- 60.3-----
2024-04-20 12:12 pmNNW 7.0 8.9----29.96- 59.7-----
2024-04-20 12:06 pm NW 4.1 6.0----29.96- 59.5-----
2024-04-20 12:00 pm NW 5.1 8.0----29.97-0.03 59.2-----
2024-04-20 11:54 amWNW 5.1 6.0----29.97- 59.2-----
2024-04-20 11:48 am NW 2.9 6.0----29.97- 58.5-----
2024-04-20 11:42 am NW 4.1 5.1----29.98- 58.5-----
2024-04-20 11:36 amNNW 2.9 6.0----29.98- 58.1-----
2024-04-20 11:30 amNNW 5.1 7.0----29.97- 57.7-----
2024-04-20 11:24 amNNW 5.1 8.0----29.98- 57.7-----
2024-04-20 11:18 amNNW 5.1 7.0----29.98- 57.6-----
2024-04-20 11:12 am N 5.1 7.0----29.98- 57.2-----
2024-04-20 11:06 am N 2.9 5.1----29.98- 57.0-----
2024-04-20 11:00 am NW 4.1 6.0----29.98-0.02 56.7-----
2024-04-20 10:54 amWNW 2.9 5.1----29.98- 56.5-----
2024-04-20 10:48 amWNW 2.9 6.0----29.99- 56.3-----
2024-04-20 10:42 am NW 4.1 7.0----29.99- 55.9-----
2024-04-20 10:36 am NW 5.1 6.0----29.99- 55.6-----
2024-04-20 10:30 am W 1.9 2.9----29.99- 55.2-----
2024-04-20 10:24 am W 1.9 4.1----30.00- 55.0-----
2024-04-20 10:18 amWSW 1.9 2.9----29.99- 55.0-----
2024-04-20 10:12 am SW 1.0 5.1----29.99- 55.2-----
2024-04-20 10:06 am NW 2.9 4.1----29.99- 54.7-----
2024-04-20 10:00 amWNW 1.0 4.1----29.99+0.00 54.7-----
2024-04-20 09:54 am W 1.9 2.9----29.99- 54.3-----
2024-04-20 09:48 am W 1.9 4.1----29.99-------
2024-04-20 09:42 amWNW 1.9 2.9----29.99-------
2024-04-20 09:36 amWNW 1.9 2.9----29.99-------
2024-04-20 09:30 amWNW 1.9 4.1----29.99- 53.6-----
2024-04-20 09:24 amWNW 1.9 2.9----29.99- 53.4-----
2024-04-20 09:18 amWNW 1.9 2.9----29.99- 53.1-----
2024-04-20 09:12 am SW 1.0 1.9----29.99- 53.1-----
2024-04-20 09:06 am- 0.0 1.9----29.99- 52.9-----
2024-04-20 09:00 am W 1.0 2.9----30.00+0.01 52.7-----
2024-04-20 08:54 am W 2.9 2.9----30.00- 52.5-----
2024-04-20 08:48 amWNW 1.9 2.9----30.00- 52.3-----
2024-04-20 08:42 am W 1.9 4.1----30.00- 52.3-----
2024-04-20 08:36 amWNW 1.0 1.9----30.00- 52.2-----
2024-04-20 08:30 am- 0.0 1.9----30.00- 52.3-----
2024-04-20 08:24 am W 1.9 2.9----30.01- 52.0-----
2024-04-20 08:18 amWSW 1.0 1.9----30.00- 52.0-----
2024-04-20 08:12 am- 0.0 2.9----30.00- 52.0-----
2024-04-20 08:06 am W 1.0 2.9----30.00- 51.8-----
2024-04-20 08:00 am W 1.0 2.9----30.01+0.01 51.8-----
2024-04-20 07:54 amWNW 1.0 1.9----30.00- 51.6-----